ARIANE 5 R/B, 41946

Orbit data source: Space-Track

ARIANE 5 R/B, 41946 is space debris in HEO originally from a launch on Tue, 14 Feb 2017 UTC launched from the French Guiana (FRGUI). Debris objects in space refer to the collection of defunct objects orbiting the Earth. Examples of debris include non-operational satellites, rocket bodies, and fragments generated from explosions, collisions, or faulty payload assembly.

Loading next visibility...
Identifier
41946, 2017-007C
Orbit
HEO
Country
Flag of FRFR
Related business
Manufacturer
Airbus Safran
Mission
Spacecraft
Bus & Motor
ESC-A, Unknown motor
Mass
~5,000 kg wet, ~5,000 kg dry
Launch date (UTC)
2017-02-14 (9 years ago)
Launch vehicle
Unknown
Launch site
French Guiana (FRGUI)
Object type
Payload
Rocket body
Debris
Shape & HBR
Cyl + 1 Nozzle, 3.5 m
Radar Cross Section
41.627 m², Large (>1 m²)

Expand to show TLE details & history
Last TLE update: 16 hours ago

TLE from 16 hours ago
0 ARIANE 5 R/B
1 41946U 17007C   26035.04740795  .00001041  00000-0  67302-3 0  9998
2 41946   4.2043 342.7657 7167002  63.6835 351.1531  2.40307653 76199
Epoch: 2026-02-04T01:08Z
TLE epoch observation values (Epoch: 2026-02-04T01:08:16.046Z)
Latitude
0.00019°
Longitude
-168.17345°
Altitude
2,314.491 km
Speed
8.647 km/s
True Right ascension
22h 52m 27s
True Declination
0° 00' 01"
Sunlit
Object was in daylight at epoch
Visualization orbit readout
Latitude
Unknown
Longitude
Unknown
Altitude
Unknown
Speed
Unknown
Apparent Right ascension
Unknown
Apparent Declination
Unknown
Sunlit
N/A
Visualization observer readout
Local Sidereal Time
19:14:37
Azimuth
Unknown
Elevation
Unknown
Doppler factor
Unknown
Orbital elements
Apogee altitude
34,050.188 km
Perigee altitude
293.579 km
Semi-major axis
23,550.021 km
Eccentricity
0.7167
Inclination
4.2043°
RAAN
342.7657°
Arg. of periapsis
63.6835°
True anomaly
296.27631°
Mean anomaly
351.1531°
Eccentric anomaly
331.65988°
Mean motion
0.60056 °/min
Orbital period
599.44 mins
BSTAR
0.00067302
Loading maneuver chart data...
Computing Atmospheric mass density...
Loading historical data...
Loading historical data...
Loading historical data...
Loading historical data...
Loading historical data...
Loading historical data...
Loading historical data...
Other satellites on launch #7 in the year 2017 (2017-02-14 UTC)

Documentation

Showing up to 5 results
|